Wind_Speed
40 41 40 40 40 41 42 41 40 38 37 37 36 36 35 35 35 34 32 32 33 33 33 33 33 33 33 34 34 34 34 35 36 36 36 36 37 37 37 37 38 40 41
43 43 43 43 43 43 44 44 43 42 41 41 40 40 40 40 39 36 34 33 33 34 34 33 33 33 33 35 35 36 36 36 36 36 36 37 37 38 39 40 41 42 44
44 45 45 46 46 46 46 46 46 47 46 45 45 44 44 43 41 38 36 36 37 37 36 35 34 33 34 35 36 36 36 36 37 36 37 38 38 40 40 42 44 45 47
43 44 45 47 48 48 49 49 49 50 50 49 48 47 46 45 44 43 42 42 41 40 39 37 36 35 36 36 36 36 36 36 37 37 38 39 40 41 42 43 44 46 47
43 45 46 48 50 51 52 53 53 53 53 54 52 51 48 47 47 48 47 45 44 43 42 40 38 37 37 37 36 36 36 37 38 39 40 41 41 42 43 44 45 46 47
47 49 51 53 54 55 56 57 58 58 58 58 57 55 53 50 49 49 49 48 47 46 45 43 41 40 39 38 37 37 37 38 39 40 41 41 42 43 44 44 45 46 48
50 53 55 57 58 59 60 61 62 62 63 62 62 60 58 55 52 51 51 50 50 48 47 45 44 42 41 39 38 38 38 39 40 41 42 42 43 44 45 46 47 48 49
49 51 53 55 57 59 60 61 62 63 65 66 66 65 63 59 56 54 53 52 50 49 49 47 45 44 42 40 40 39 40 40 41 42 42 43 44 45 47 48 50 51 52
48 51 53 55 56 58 59 60 61 62 63 65 67 68 66 63 59 56 54 53 51 50 49 47 45 44 42 41 40 41 42 42 42 43 43 44 45 47 49 52 54 56 57
48 52 54 56 57 57 58 58 59 59 61 62 64 67 67 65 61 58 56 54 52 50 48 46 45 44 43 41 41 42 42 42 43 43 44 45 47 50 53 56 58 60 61
50 53 55 56 56 55 54 53 54 55 56 58 60 63 64 64 62 59 56 54 52 49 46 44 43 43 42 41 42 42 43 43 43 44 45 47 50 54 57 59 61 62 64
49 51 52 53 51 49 47 46 46 48 50 53 55 58 61 61 60 57 55 52 50 47 44 43 42 41 40 41 42 42 43 43 44 45 47 51 54 57 60 61 62 64 66
46 47 48 46 44 42 40 40 41 42 45 47 49 52 56 58 57 54 52 49 47 44 42 41 40 39 40 41 41 42 42 43 45 47 51 54 57 59 61 62 64 65 66
40 40 38 35 32 32 33 33 34 36 38 41 43 46 50 52 52 50 48 45 43 40 39 38 38 38 39 39 40 41 42 44 47 51 54 57 59 60 62 63 65 66 67
34 31 27 22 19 20 23 25 27 29 31 33 34 38 43 45 45 45 43 40 38 37 36 36 36 36 37 38 39 41 44 47 50 53 56 57 59 61 63 64 65 66 67
28 24 19 13 9 10 13 17 20 22 24 25 28 32 35 38 39 38 36 35 34 34 33 34 34 35 37 38 41 45 48 51 52 54 56 58 60 62 63 64 66 68 71
24 21 17 12 6 1 5 9 14 18 20 23 26 28 30 32 32 31 31 31 32 31 32 33 33 36 38 42 45 48 49 50 51 54 56 58 60 61 63 64 67 71 74
21 18 15 13 11 10 9 11 14 17 19 21 23 26 27 28 27 28 27 28 28 30 32 33 36 39 41 43 44 45 47 50 52 55 57 58 60 62 64 66 69 74 78
18 16 14 12 12 13 14 15 17 18 19 20 22 23 23 23 24 25 26 27 28 31 35 37 38 39 40 41 42 45 48 51 53 56 57 59 61 64 67 70 74 78 81
16 14 12 12 12 13 15 16 18 18 19 19 18 18 20 21 22 22 25 27 29 31 31 33 34 35 38 41 44 47 49 51 54 56 58 61 64 67 71 74 77 78 78
14 13 12 11 11 11 12 14 14 15 15 14 13 14 16 17 19 21 23 24 25 26 27 29 32 35 38 42 45 47 49 52 54 57 60 63 67 70 73 76 76 75 71
13 12 11 10 9 9 9 10 9 9 9 8 8 10 12 14 16 16 18 19 21 23 26 30 34 37 40 43 46 49 51 53 56 59 63 66 70 72 74 74 72 67 60
12 11 10 9 9 8 6 6 5 5 5 6 6 6 7 9 10 12 15 18 22 26 29 33 36 39 42 45 47 50 53 56 59 63 66 70 72 73 73 70 63 55 47
8 8 9 9 8 8 7 6 5 3 2 1 1 3 6 8 11 14 18 22 26 29 32 35 38 41 43 46 49 53 56 60 63 67 70 72 73 72 67 58 49 42 38
5 4 5 6 6 6 5 4 3 3 2 3 5 7 10 13 16 19 22 25 28 31 34 37 39 42 45 49 53 57 61 64 68 70 72 72 69 62 52 44 38 34 32
5 4 3 3 3 3 3 4 4 5 6 8 10 13 16 18 21 23 26 29 31 33 35 38 41 45 49 53 57 62 65 68 70 70 69 66 58 47 39 34 31 29 29
Wind_Direction
251 250 249 248 245 245 247 249 251 251 251 251 253 256 257 256 255 255 255 258 261 264 267 269 271 274 277 280 282 284 287 289 290 290 290 289 288 287 287 286 284 283 283
251 251 250 249 248 247 247 248 250 251 251 251 251 252 253 254 255 255 257 259 261 262 264 267 270 273 276 278 280 283 286 288 289 290 291 291 290 289 289 289 288 287 287
252 252 251 251 251 251 250 250 250 250 251 251 251 250 252 254 257 258 258 258 258 260 263 267 270 273 275 278 280 282 285 287 288 290 291 291 290 290 290 290 289 289 289
255 255 255 255 254 254 253 253 252 251 251 252 252 252 252 254 256 257 256 256 258 261 264 267 268 271 274 277 279 282 284 286 288 289 290 291 291 291 291 291 291 291 291
258 258 258 258 258 258 257 257 256 254 252 252 252 253 252 252 253 255 257 258 260 262 264 266 268 270 272 275 278 280 282 285 287 289 290 291 292 292 293 294 295 295 295
261 261 261 261 261 260 260 259 257 256 254 253 252 252 252 252 252 253 255 257 258 260 263 265 268 270 272 274 276 279 281 283 286 287 289 290 291 293 293 295 296 297 297
264 264 263 262 261 260 259 257 257 255 254 253 252 251 251 251 251 251 253 254 256 259 261 264 267 269 272 274 276 278 280 282 285 286 288 289 291 292 293 294 295 295 295
270 269 267 265 263 261 259 257 255 253 252 251 250 249 249 249 249 250 251 252 255 257 259 262 265 268 271 273 275 277 279 282 284 285 287 288 290 292 293 294 295 296 296
275 274 272 270 268 265 262 259 256 253 250 248 246 246 246 246 247 247 248 250 252 254 257 260 264 267 269 270 273 276 280 282 283 284 286 288 290 292 293 295 296 297 296
283 282 279 276 272 268 265 261 257 253 249 246 244 242 242 242 243 244 245 248 250 253 256 259 262 264 266 268 272 276 279 281 283 284 287 288 290 292 294 295 297 297 297
291 288 285 281 276 271 266 260 255 251 247 244 241 239 237 237 238 239 242 244 247 250 254 257 259 261 264 267 272 276 279 281 283 285 287 289 291 293 294 296 297 298 298
296 293 289 284 278 271 264 258 252 248 245 241 240 237 234 233 233 234 237 241 244 248 251 254 257 259 262 267 273 277 280 282 284 286 289 291 292 293 295 296 297 298 299
303 300 293 285 276 267 260 254 250 245 241 239 237 236 232 228 227 228 232 237 241 245 249 253 255 258 262 268 273 277 280 283 286 289 291 291 292 294 295 296 298 298 299
311 308 300 288 275 264 255 250 246 242 238 238 236 232 226 222 222 223 227 232 237 242 247 251 254 259 265 271 275 279 283 286 288 290 290 291 293 294 296 297 298 299 299
323 320 314 300 278 260 250 244 239 237 235 234 230 223 217 215 216 218 222 228 234 240 245 250 255 262 268 272 277 281 285 287 288 288 290 292 294 296 298 299 299 300 300
337 336 335 326 297 261 239 231 227 224 219 213 206 203 205 207 210 213 219 226 232 238 245 252 259 265 271 275 279 282 283 285 288 290 292 294 296 298 299 300 301 301 301
352 356 0 10 24 77 194 203 197 188 183 179 181 187 194 199 203 209 217 224 231 238 248 253 260 265 269 274 276 278 284 287 290 292 295 297 298 299 300 301 301 302 303
4 13 22 37 58 79 106 135 149 156 159 162 167 178 185 192 199 208 215 226 234 243 250 254 258 262 266 272 279 285 289 291 293 295 297 298 299 300 300 302 303 304 304
14 22 32 48 69 88 103 117 126 133 139 148 159 170 180 191 202 210 218 227 237 249 253 254 258 265 275 282 287 291 293 295 297 298 299 300 300 301 302 304 305 306 306
21 30 43 58 75 91 104 113 122 130 138 147 158 171 185 197 205 217 228 235 245 251 257 264 272 281 286 289 292 294 296 297 299 300 301 302 303 304 305 306 307 307 307
27 36 52 67 78 90 100 110 122 132 141 153 170 188 206 214 221 228 237 246 256 264 273 280 285 289 292 293 296 298 299 300 301 302 303 304 305 306 307 307 308 308 309
32 40 53 67 78 87 92 102 116 134 151 169 189 205 220 226 233 243 254 264 274 281 286 290 293 295 297 299 301 302 302 302 303 304 305 305 306 307 308 308 309 310 310
35 43 53 64 73 78 89 110 128 150 174 195 212 224 238 249 258 268 277 284 289 293 296 298 300 301 302 303 303 303 304 305 305 306 306 307 307 308 308 309 310 311 312
27 44 57 68 75 81 85 94 104 115 121 156 270 283 287 288 291 293 295 297 300 302 303 304 304 304 304 305 305 305 306 306 307 307 307 307 308 308 309 310 310 311 313
356 24 50 64 71 77 79 73 63 45 11 327 311 304 302 302 302 303 304 306 307 307 307 306 306 306 307 307 308 308 307 307 307 307 307 308 309 310 310 309 310 312 315
321 330 349 6 15 16 11 2 349 338 327 317 312 310 310 310 311 311 311 310 310 309 309 309 309 309 310 310 309 308 307 307 307 307 309 310 310 309 309 311 312 315 319
Height
5751 5753 5755 5757 5759 5761 5763 5765 5766 5768 5769 5770 5771 5772 5774 5775 5776 5777 5779 5780 5780 5779 5780 5780 5780 5780 5779 5779 5778 5777 5775 5773 5772 5770 5767 5766 5764 5761 5759 5757 5756 5754 5752
5743 5744 5746 5747 5749 5751 5753 5755 5757 5758 5760 5762 5763 5764 5764 5765 5767 5769 5772 5773 5772 5772 5772 5772 5773 5772 5772 5771 5770 5769 5767 5766 5764 5762 5759 5758 5756 5753 5751 5748 5746 5744 5741
5733 5734 5736 5737 5739 5741 5743 5745 5747 5748 5749 5751 5753 5754 5754 5756 5758 5762 5764 5764 5763 5763 5764 5765 5765 5765 5764 5763 5762 5761 5759 5758 5756 5754 5752 5749 5747 5745 5742 5739 5736 5734 5731
5723 5724 5725 5726 5728 5729 5731 5733 5735 5737 5738 5740 5742 5744 5746 5748 5750 5752 5753 5753 5754 5754 5755 5756 5756 5756 5756 5755 5753 5752 5751 5749 5747 5745 5743 5741 5738 5736 5733 5730 5726 5723 5719
5713 5713 5714 5715 5715 5716 5718 5719 5721 5724 5726 5728 5730 5733 5736 5738 5740 5741 5742 5743 5744 5745 5746 5747 5748 5748 5747 5746 5745 5744 5743 5741 5739 5736 5734 5731 5728 5726 5723 5719 5716 5713 5708
5702 5702 5702 5702 5703 5703 5703 5704 5706 5708 5711 5714 5717 5720 5723 5726 5728 5730 5731 5732 5733 5735 5736 5738 5738 5738 5738 5737 5736 5735 5734 5732 5730 5728 5725 5722 5720 5716 5713 5710 5706 5702 5697
5689 5688 5688 5687 5687 5687 5687 5688 5689 5691 5693 5697 5701 5705 5709 5713 5716 5718 5720 5721 5723 5725 5726 5728 5728 5728 5728 5728 5727 5726 5725 5724 5721 5719 5716 5713 5710 5706 5703 5699 5696 5692 5688
5674 5672 5671 5670 5669 5668 5668 5668 5669 5671 5674 5678 5683 5688 5693 5698 5702 5705 5708 5710 5713 5715 5716 5717 5718 5718 5718 5718 5718 5717 5716 5714 5712 5709 5706 5703 5699 5695 5692 5688 5683 5679 5676
5657 5655 5653 5650 5649 5647 5646 5646 5648 5650 5653 5657 5663 5669 5676 5682 5688 5691 5695 5699 5702 5704 5706 5708 5708 5709 5709 5709 5708 5708 5706 5704 5702 5699 5696 5692 5688 5684 5679 5674 5670 5665 5661
5640 5636 5632 5629 5627 5625 5624 5624 5626 5629 5633 5637 5643 5651 5659 5666 5672 5677 5682 5687 5691 5694 5696 5698 5699 5699 5699 5699 5699 5698 5696 5694 5692 5688 5685 5681 5676 5672 5666 5661 5656 5650 5645
5623 5617 5612 5607 5604 5603 5603 5604 5605 5608 5613 5618 5625 5633 5641 5650 5656 5663 5670 5675 5679 5684 5687 5688 5689 5690 5690 5690 5689 5688 5686 5684 5681 5677 5673 5669 5664 5659 5653 5648 5642 5636 5630
5607 5599 5592 5586 5583 5582 5582 5584 5586 5590 5595 5601 5607 5615 5624 5633 5642 5650 5658 5664 5669 5674 5677 5679 5680 5681 5681 5681 5680 5678 5676 5673 5670 5666 5662 5657 5652 5646 5640 5634 5628 5621 5614
5592 5582 5573 5566 5563 5563 5565 5567 5570 5574 5579 5585 5592 5600 5609 5620 5629 5638 5647 5654 5659 5664 5667 5669 5671 5672 5672 5671 5670 5668 5665 5662 5658 5654 5650 5644 5639 5633 5627 5620 5613 5606 5598
5579 5568 5558 5551 5548 5548 5550 5553 5557 5562 5567 5573 5579 5587 5597 5609 5619 5628 5637 5644 5650 5655 5658 5660 5662 5662 5662 5661 5660 5657 5654 5651 5647 5642 5637 5631 5625 5619 5613 5605 5597 5590 5582
5571 5560 5550 5543 5539 5539 5541 5544 5548 5553 5558 5564 5570 5579 5589 5600 5611 5621 5629 5637 5642 5647 5650 5652 5653 5653 5653 5652 5650 5647 5643 5639 5635 5630 5624 5618 5612 5605 5597 5589 5581 5573 5565
5567 5557 5548 5541 5537 5535 5536 5539 5542 5546 5552 5557 5565 5575 5586 5597 5607 5616 5624 5631 5636 5639 5642 5644 5644 5644 5643 5642 5639 5636 5632 5628 5623 5617 5611 5604 5597 5589 5582 5573 5565 5556 5547
5568 5559 5551 5545 5540 5537 5537 5538 5541 5545 5551 5558 5566 5576 5586 5596 5605 5613 5620 5625 5629 5632 5635 5635 5636 5635 5633 5631 5629 5625 5620 5615 5610 5604 5597 5590 5582 5575 5567 5559 5550 5539 5527
5571 5564 5557 5551 5547 5544 5543 5544 5546 5550 5555 5561 5570 5579 5588 5596 5603 5610 5615 5619 5623 5626 5627 5628 5627 5626 5624 5621 5618 5613 5609 5603 5597 5590 5583 5576 5568 5560 5552 5544 5534 5522 5509
5575 5569 5564 5559 5556 5553 5552 5552 5553 5557 5562 5568 5575 5582 5589 5596 5602 5606 5611 5615 5618 5619 5619 5619 5618 5616 5613 5610 5607 5602 5596 5590 5583 5576 5569 5562 5554 5545 5536 5527 5517 5504 5490
5580 5575 5571 5567 5564 5562 5561 5561 5563 5566 5570 5575 5580 5586 5591 5596 5600 5603 5607 5609 5611 5612 5612 5611 5609 5606 5603 5600 5595 5590 5584 5578 5570 5562 5555 5547 5538 5528 5518 5508 5497 5485 5472
5584 5580 5577 5574 5572 5570 5570 5570 5571 5573 5577 5580 5584 5588 5591 5595 5598 5600 5603 5604 5605 5605 5604 5602 5600 5597 5593 5589 5584 5578 5571 5564 5557 5549 5540 5531 5522 5511 5501 5489 5478 5466 5455
5588 5584 5582 5579 5578 5577 5576 5576 5577 5579 5581 5584 5586 5589 5592 5594 5596 5598 5599 5600 5599 5598 5596 5594 5590 5587 5582 5576 5570 5564 5558 5551 5544 5535 5526 5516 5506 5495 5483 5471 5460 5449 5439
5591 5588 5586 5584 5583 5582 5581 5582 5583 5584 5585 5587 5588 5590 5591 5593 5594 5595 5595 5594 5592 5590 5587 5584 5580 5576 5570 5565 5559 5552 5545 5537 5529 5519 5510 5500 5489 5478 5466 5455 5445 5435 5426
5594 5591 5590 5588 5587 5586 5586 5586 5586 5587 5587 5588 5589 5590 5591 5591 5591 5590 5589 5587 5585 5582 5578 5574 5570 5566 5560 5554 5548 5540 5532 5523 5513 5503 5493 5482 5472 5461 5450 5440 5431 5424 5417
5595 5594 5592 5591 5590 5590 5589 5589 5589 5589 5589 5589 5589 5589 5589 5588 5586 5585 5582 5579 5577 5573 5570 5566 5561 5556 5550 5543 5535 5526 5517 5507 5498 5487 5475 5464 5454 5444 5435 5428 5421 5415 5409
5595 5594 5593 5592 5592 5591 5590 5590 5589 5589 5588 5588 5587 5586 5584 5582 5580 5578 5575 5572 5569 5566 5562 5557 5552 5545 5538 5530 5521 5511 5501 5491 5480 5469 5458 5448 5438 5430 5424 5418 5413 5408 5402